Location: Bettgenhausen
(50.6463°N, 7.5681°E)
Time: 23:24:26
(UTC+00:00)

STARLINK-80 - Pass Details

Date: 27 February 2020
Orbit: 489 x 494 km, 53.0° (Epoch: 05 April)

Event Time Altitude Azimuth Distance (km) Brightness Sun altitude
Rises 17:38:51 0° 285° (WNW) 2,584 8.6 -5.9°
Reaches altitude 10° 17:41:03 10° 288° (WNW) 1,700 7.4 -6.2°
Maximum altitude 17:44:53 71° 13° (NNE) 529 3.5 -6.8°
Drops below altitude 10° 17:48:43 10° 98° (E) 1,695 5.5 -7.4°
Enters shadow 17:48:53 - 98° (E) 1,764 5.6 -7.5°
